Weather History for Dansville, NY

Change the Weather History Date:

Monday, September 23, 2013

  Actual Average Record
Temperature  
Mean Temperature 52 °F -  
Max Temperature 61 °F 68 °F 91 °F (1965)
Min Temperature 42 °F 45 °F 28 °F (1974)
Degree Days  
Heating Degree Days 14    
Growing Degree Days 2 (Base 50)    
Moisture  
Dew Point 42 °F    
Average Humidity 72    
Maximum Humidity 93    
Minimum Humidity 47    
Precipitation  
Precipitation 0.00 in - - ()
Sea Level Pressure  
Sea Level Pressure 30.14 in    
Wind  
Wind Speed 3 mph (NW)    
Max Wind Speed 17 mph    
Max Gust Speed 22 mph    
Visibility 10 miles    
Events      
Averages and records for this station are not official NWS values.
T = Trace of Precipitation, MM = Missing Value Source: NWS Daily Summary

Daily Weather History Graph

Daily Weather History Graph

Search for Another Location

Airport:

Trip Planner

Search our weather history database for the weather conditions in past years. The results will help you decide how hot, cold, wet, or windy it might be!

Date:

Astronomy

Sep. 23, 2013 Rise Set
Actual Time 6:59 AM EDT 7:05 PM EDT
Civil Twilight 6:31 AM EDT 7:34 PM EDT
Nautical Twilight 5:58 AM EDT 8:06 PM EDT
Astronomical Twilight 5:24 AM EDT 8:40 PM EDT
Moon 9:30 PM EDT (9/23) 11:22 AM EDT (9/23)
Length of Visible Light 13h 02m
Length of Day
12h 06m
Waning Gibbous, 81% of the Moon is Illuminated
Sep 23
Waning Gibbous
Sep 26
Last Quarter
Oct 4
New
Oct 11
First Quarter
Oct 18
Full

Hourly Weather History & Observations

Time (EDT) Temp. Windchill Dew Point Humidity Pressure Visibility Wind Dir Wind Speed Gust Speed Precip Events Conditions
12:54 AM 50.0 °F - 43.0 °F 77% 30.07 in 10.0 mi Calm Calm - N/A   Overcast
1:54 AM 48.9 °F - 45.0 °F 86% 30.08 in 10.0 mi Calm Calm - N/A   Overcast
2:54 AM 48.9 °F - 44.1 °F 83% 30.09 in 10.0 mi Calm Calm - N/A   Overcast
3:51 AM 48.2 °F - 46.4 °F 93% 30.06 in 10.0 mi Calm Calm - N/A   Overcast
3:54 AM 48.9 °F - 46.0 °F 90% 30.09 in 10.0 mi Calm Calm - N/A   Overcast
4:51 AM 50.0 °F - 44.6 °F 82% 30.07 in 10.0 mi Calm Calm - N/A   Overcast
4:54 AM 50.0 °F - 45.0 °F 83% 30.10 in 10.0 mi Calm Calm - N/A   Overcast
5:54 AM 48.9 °F - 45.0 °F 86% 30.11 in 10.0 mi Calm Calm - N/A   Overcast
6:54 AM 48.9 °F - 45.0 °F 86% 30.14 in 10.0 mi NW 3.5 mph - N/A   Overcast
7:54 AM 50.0 °F - 45.0 °F 83% 30.15 in 10.0 mi NNW 4.6 mph - N/A   Overcast
8:54 AM 52.0 °F - 43.0 °F 71% 30.16 in 10.0 mi NW 8.1 mph - N/A   Clear
9:54 AM 52.0 °F - 39.9 °F 63% 30.18 in 10.0 mi NW 10.4 mph - N/A   Mostly Cloudy
10:54 AM 53.1 °F - 39.0 °F 59% 30.19 in 10.0 mi NNW 11.5 mph - N/A   Mostly Cloudy
11:54 AM 55.9 °F - 39.0 °F 53% 30.19 in 10.0 mi NNW 10.4 mph - N/A   Mostly Cloudy
12:54 PM 57.9 °F - 39.9 °F 51% 30.18 in 10.0 mi NW 17.3 mph 21.9 mph N/A   Scattered Clouds
1:54 PM 59.0 °F - 39.9 °F 49% 30.17 in 10.0 mi NNW 9.2 mph - N/A   Partly Cloudy
2:54 PM 60.1 °F - 39.9 °F 47% 30.15 in 10.0 mi NW 6.9 mph - N/A   Partly Cloudy
3:54 PM 60.1 °F - 39.9 °F 47% 30.14 in 10.0 mi NNW 9.2 mph - N/A   Clear
4:54 PM 60.1 °F - 39.9 °F 47% 30.14 in 10.0 mi NNW 11.5 mph - N/A   Clear
5:54 PM 59.0 °F - 39.9 °F 49% 30.15 in 10.0 mi NNW 9.2 mph - N/A   Clear
6:54 PM 55.0 °F - 42.1 °F 62% 30.15 in 10.0 mi WNW 5.8 mph - N/A   Clear
7:54 PM 51.1 °F - 42.1 °F 71% 30.17 in 10.0 mi Calm Calm - N/A   Clear
8:54 PM 46.9 °F - 43.0 °F 86% 30.18 in 10.0 mi Calm Calm - N/A   Clear
9:54 PM 45.0 °F 43.5 °F 42.1 °F 90% 30.18 in 10.0 mi SSE 3.5 mph - N/A   Clear
10:54 PM 43.0 °F 41.3 °F 41.0 °F 93% 30.19 in 10.0 mi SSE 3.5 mph - N/A   Clear
11:54 PM 42.1 °F - 39.9 °F 92% 30.19 in 10.0 mi Calm Calm - N/A   Clear